Weather History for KCRP - January, 2015

Change the Weather History Date:

Monday, January 19, 2015

  Actual Average Record
Temperature  
Mean Temperature 60 °F 57 °F  
Max Temperature 74 °F 67 °F 87 °F (2000)
Min Temperature 45 °F 47 °F 19 °F (1940)
Degree Days  
Heating Degree Days 5 9  
Month to date heating degree days 319 171  
Since 1 July heating degree days 634 522  
Cooling Degree Days 0 1  
Month to date cooling degree days 0 19  
Year to date cooling degree days 0 19  
Growing Degree Days 9 (Base 50)    
Moisture  
Dew Point 50 °F    
Average Humidity 73    
Maximum Humidity 100    
Minimum Humidity 46    
Precipitation  
Precipitation 0.00 in 0.05 in 1.84 in (1981)
Month to date precipitation 0.90 0.94  
Year to date precipitation 0.90 0.94  
Snow  
Snow 0.00 in - - ()
Month to date snowfall 0.0  
Since 1 July snowfall 0.0  
Snow Depth 0.00 in    
Sea Level Pressure  
Sea Level Pressure 30.06 in    
Wind  
Wind Speed 7 mph (SSE)    
Max Wind Speed 16 mph    
Max Gust Speed 20 mph    
Visibility 8 miles    
Events Fog    
T = Trace of Precipitation, MM = Missing Value Source: NWS Daily Summary

Daily Weather History Graph

Daily Weather History Graph

Search for Another Location

Airport or City:

Trip Planner

Search our weather history database for the weather conditions in past years. The results will help you decide how hot, cold, wet, or windy it might be!

Date:

Astronomy

Jan. 19, 2015 Rise Set
Actual Time 7:21 AM CST 6:00 PM CST
Civil Twilight 6:56 AM CST 6:25 PM CST
Nautical Twilight 6:27 AM CST 6:53 PM CST
Astronomical Twilight 5:59 AM CST 7:21 PM CST
Moon 6:16 AM CST (1/19) 5:26 PM CST (1/19)
Length of Visible Light 11h 28m
Length of Day
10h 38m
Waning Crescent, 1% of the Moon is Illuminated
Jan 19
Waning Crescent
Jan 20
New
Jan 26
First Quarter
Feb 3
Full
Feb 11
Last Quarter

Hourly Weather History & Observations

Time (CST) Temp. Windchill Dew Point Humidity Pressure Visibility Wind Dir Wind Speed Gust Speed Precip Events Conditions
12:51 AM 51.1 °F - 45.0 °F 80% 30.22 in 10.0 mi East 3.5 mph - N/A   Mostly Cloudy
1:51 AM 50.0 °F - 46.0 °F 86% 30.18 in 10.0 mi East 9.2 mph - N/A   Overcast
2:51 AM 51.1 °F - 46.9 °F 86% 30.17 in 10.0 mi East 9.2 mph - N/A   Mostly Cloudy
3:51 AM 50.0 °F - 46.0 °F 86% 30.16 in 10.0 mi ESE 4.6 mph - N/A   Scattered Clouds
4:51 AM 48.0 °F - 46.0 °F 93% 30.13 in 10.0 mi ESE 6.9 mph - N/A   Partly Cloudy
5:51 AM 48.0 °F - 46.9 °F 96% 30.12 in 10.0 mi East 4.6 mph - N/A Fog Shallow Fog
6:51 AM 48.9 °F - 48.0 °F 97% 30.13 in 10.0 mi East 4.6 mph - N/A Fog Shallow Fog
7:51 AM 46.0 °F 41.4 °F 45.0 °F 96% 30.15 in 8.0 mi WNW 9.2 mph - N/A Fog Patches of Fog
8:51 AM 51.1 °F - 48.9 °F 92% 30.14 in 10.0 mi Calm Calm - N/A   Mostly Cloudy
9:51 AM 57.9 °F - 53.1 °F 84% 30.13 in 10.0 mi SSE 4.6 mph - N/A   Mostly Cloudy
10:51 AM 66.0 °F - 57.0 °F 73% 30.13 in 10.0 mi SSW 10.4 mph - N/A   Mostly Cloudy
11:51 AM 64.9 °F - 55.9 °F 73% 30.12 in 10.0 mi SSW 8.1 mph - N/A   Mostly Cloudy
12:51 PM 68.0 °F - 55.9 °F 65% 30.07 in 10.0 mi SSW 8.1 mph - N/A   Mostly Cloudy
1:51 PM 70.0 °F - 54.0 °F 57% 30.04 in 10.0 mi South 9.2 mph - N/A   Scattered Clouds
2:51 PM 73.0 °F - 51.1 °F 46% 30.00 in 10.0 mi South 11.5 mph - N/A   Partly Cloudy
3:51 PM 73.0 °F - 52.0 °F 48% 29.99 in 10.0 mi SSE 8.1 mph - N/A   Partly Cloudy
4:51 PM 71.1 °F - 52.0 °F 51% 29.97 in 10.0 mi South 12.7 mph - N/A   Partly Cloudy
5:51 PM 64.9 °F - 53.1 °F 65% 29.97 in 10.0 mi SSE 10.4 mph - N/A   Partly Cloudy
6:51 PM 57.9 °F - 48.9 °F 72% 29.99 in 10.0 mi South 6.9 mph - N/A   Partly Cloudy
7:51 PM 57.0 °F - 51.1 °F 81% 29.99 in 10.0 mi SSE 9.2 mph - N/A   Partly Cloudy
8:51 PM 55.0 °F - 52.0 °F 89% 29.99 in 10.0 mi South 8.1 mph - N/A   Clear
9:51 PM 54.0 °F - 52.0 °F 93% 29.99 in 10.0 mi South 6.9 mph - N/A   Clear
10:51 PM 52.0 °F - 51.1 °F 97% 29.99 in 3.0 mi SSE 8.1 mph - N/A   Scattered Clouds
11:00 PM 51.1 °F - 50.0 °F 96% 29.99 in 0.5 mi SSE 8.1 mph - N/A Fog Fog
11:21 PM 51.1 °F - 51.1 °F 100% 29.99 in 0.2 mi South 5.8 mph - N/A Fog Fog
11:51 PM 48.9 °F - 48.0 °F 97% 29.99 in 0.1 mi Calm Calm - N/A Fog Fog